Date,TemperatureHighF,TemperatureAvgF,TemperatureLowF,DewpointHighF,DewpointAvgF,DewpointLowF,HumidityHigh,HumidityAvg,HumidityLow,PressureMaxIn,PressureMinIn,WindSpeedMaxMPH,WindSpeedAvgMPH,GustSpeedMaxMPH,PrecipitationSumIn
2013-1-1,52,49,43,51,46,37,96,90,70,30.14,29.96,4,0,5,1.20
2013-1-2,51,44,39,50,42,37,96,91,84,30.17,29.94,15,3,15,0.05
2013-1-3,47,39,30,39,35,27,93,85,69,30.35,30.13,17,3,17,0.00
2013-1-4,53,36,24,32,26,22,94,71,36,30.41,30.32,16,2,17,0.00
2013-1-5,50,38,24,39,29,21,92,72,46,30.43,30.30,7,1,7,0.03
2013-1-6,47,41,33,40,37,30,93,86,73,30.32,30.17,20,4,20,0.01
2013-1-7,54,42,26,35,31,24,93,70,42,30.42,30.27,21,3,21,0.00
2013-1-8,52,46,36,43,37,30,81,72,62,30.45,30.35,17,4,17,0.00
2013-1-9,64,55,50,54,50,42,90,82,69,30.46,30.37,10,1,11,0.00
2013-1-10,58,57,54,54,53,51,90,88,86,30.42,30.41,5,1,5,0.00
2013-1-11,68,64,60,64,62,58,96,95,90,30.24,30.10,8,3,24,0.34
2013-1-12,73,66,59,65,62,58,97,87,72,30.16,30.04,6,1,14,0.01
2013-1-13,71,66,62,63,61,58,93,85,74,30.10,30.00,6,2,16,0.04
2013-1-14,66,59,49,64,58,48,96,95,92,30.12,30.00,5,2,12,0.89
2013-1-15,65,60,50,63,59,49,97,96,95,30.11,29.95,13,2,13,0.81
2013-1-16,65,59,54,64,58,53,97,95,93,29.99,29.89,10,1,11,0.62
2013-1-17,57,50,36,56,48,34,97,94,87,30.25,29.67,29,3,29,1.07
2013-1-18,56,40,30,38,31,27,94,74,35,30.53,30.24,7,1,7,0.01
2013-1-19,55,39,30,35,31,28,93,74,39,30.49,30.27,4,1,10,0.00
2013-1-20,63,46,29,42,36,28,93,70,41,30.26,30.12,18,2,18,0.01
2013-1-21,58,43,29,38,30,20,95,63,41,30.18,30.08,24,4,24,0.00
2013-1-22,43,36,29,19,16,14,60,45,34,30.34,30.16,20,4,20,0.00
2013-1-23,50,38,27,35,24,15,78,57,43,30.40,30.20,20,3,20,0.00
2013-1-24,52,44,29,42,28,19,82,57,30,30.41,30.13,20,4,21,0.00
2013-1-25,37,31,28,34,21,12,93,69,43,30.44,30.19,22,5,22,0.02
2013-1-26,54,42,31,39,35,28,95,80,51,30.32,30.18,14,3,14,0.02
2013-1-27,48,42,31,36,33,28,90,71,61,30.52,30.31,22,6,22,0.00
2013-1-28,51,44,40,47,37,33,94,78,67,30.46,30.31,12,2,12,0.00
2013-1-29,71,56,40,62,53,38,96,88,69,30.31,29.98,11,2,11,0.07
2013-1-30,68,60,43,65,57,38,96,91,82,29.98,29.52,31,6,31,2.46
2013-1-31,49,40,33,38,28,25,82,62,40,30.16,29.74,31,6,31,0.01
2013-2-1,43,35,24,31,19,10,75,52,27,30.41,30.10,23,4,23,0.00
2013-2-2,48,34,21,39,24,11,94,72,25,30.39,30.16,21,2,21,0.44
2013-2-3,54,42,35,39,34,29,99,74,43,30.16,30.01,28,4,28,0.00
2013-2-4,49,39,27,35,30,25,91,72,45,30.17,30.05,10,1,10,0.00
2013-2-5,55,43,32,49,38,29,93,83,64,30.07,30.00,11,1,11,0.00
2013-2-6,68,48,37,48,40,35,96,76,32,30.20,30.06,15,1,15,0.01
2013-2-7,51,48,43,46,40,33,92,76,53,30.17,29.96,27,7,27,0.20
2013-2-8,59,48,36,50,43,31,95,82,51,30.17,29.93,15,2,15,0.01
2013-2-9,63,45,27,36,30,25,94,63,30,30.33,30.15,10,1,10,0.01
2013-2-10,57,48,43,48,38,31,95,69,50,30.35,30.12,22,6,22,1.30
2013-2-11,56,52,48,55,51,47,97,95,91,30.14,30.05,13,2,17,0.31
2013-2-12,58,50,44,48,42,34,93,78,41,30.12,29.86,20,2,20,0.20
2013-2-13,51,44,38,48,42,34,95,90,81,29.97,29.75,22,4,24,0.07
2013-2-14,58,41,30,38,34,28,94,77,41,30.10,29.96,17,2,17,0.00
2013-2-15,62,44,30,43,35,28,95,74,39,30.14,30.00,22,2,22,0.00
2013-2-16,43,36,29,36,26,14,92,67,37,30.15,29.96,28,3,28,0.00
2013-2-17,45,32,20,21,16,10,77,52,29,30.33,30.15,23,3,23,0.00
2013-2-18,58,41,24,32,26,19,84,59,37,30.36,30.17,16,2,16,0.00
2013-2-19,56,44,38,44,34,21,94,70,39,30.19,30.00,26,3,26,0.28
2013-2-20,55,38,28,23,19,12,71,48,18,30.19,30.12,20,2,20,0.00
2013-2-21,61,44,28,40,25,19,82,51,28,30.22,29.98,18,3,18,0.23
2013-2-22,46,41,40,41,39,37,95,93,82,30.20,30.05,24,8,24,1.21
2013-2-23,52,46,42,49,44,40,95,93,88,30.09,29.87,15,2,15,0.48
2013-2-24,66,45,37,47,39,34,96,82,40,30.02,29.92,17,1,17,0.00
2013-2-25,49,46,37,38,33,29,91,62,51,30.07,29.92,31,11,31,0.00
2013-2-26,45,40,36,43,38,34,94,93,83,29.94,29.61,32,8,32,1.30
2013-2-27,58,53,42,39,37,34,72,55,47,29.90,29.81,26,6,26,0.00
2013-2-28,44,38,37,29,28,28,69,67,57,30.00,29.84,16,3,20,0.00
2013-3-1,41,37,35,32,30,27,80,74,65,30.02,29.97,16,3,16,0.00
2013-3-2,36,36,35,32,32,31,87,84,81,29.99,29.97,12,6,12,0.00
2013-3-3,43,36,30,32,22,19,83,56,44,30.11,29.98,21,4,21,0.00
2013-3-4,59,40,24,31,24,20,84,56,32,30.22,30.09,13,2,13,0.00
2013-3-5,65,49,39,56,41,28,90,75,63,30.10,29.66,33,8,33,0.25
2013-3-6,40,36,32,30,27,22,83,71,62,30.22,29.87,29,5,29,0.00
2013-3-7,59,41,28,37,31,26,91,69,41,30.30,30.18,17,2,17,0.00
2013-3-8,65,46,27,34,31,24,92,59,30,30.34,30.21,16,2,16,0.00
2013-3-9,43,39,35,31,29,27,78,67,56,30.29,30.27,7,1,7,0.00
2013-3-10,67,59,50,47,42,35,63,52,34,30.25,30.09,19,6,21,0.00
2013-3-11,63,57,54,56,52,47,95,85,63,30.10,29.80,15,5,20,1.16
2013-3-12,59,49,40,52,40,34,95,73,46,30.10,29.81,24,5,24,0.01
2013-3-13,53,42,31,36,28,22,92,61,35,30.27,30.10,27,4,27,0.00
2013-3-14,55,40,27,26,21,18,75,49,30,30.39,30.25,18,3,18,0.00
2013-3-15,47,47,47,20,20,20,34,34,34,30.25,29.99,2,2,2,0.00
2013-3-16,77,58,47,50,33,20,74,40,33,29.99,29.82,31,4,31,0.00
2013-3-17,71,59,45,56,48,41,91,69,50,29.96,29.89,15,2,15,0.00
2013-3-18,60,50,45,57,47,44,95,90,75,30.01,29.80,21,5,21,0.31
2013-3-19,65,52,42,47,40,30,100,70,30,30.07,29.90,22,3,22,0.01
2013-4-22,68,58,49,49,44,40,75,61,50,30.33,30.16,12,6,28,0.00
2013-4-23,72,59,42,52,45,38,88,63,47,30.25,30.08,7,2,18,0.00
2013-4-24,75,63,52,62,57,49,95,82,57,30.12,30.06,8,2,23,0.17
2013-4-25,75,58,44,56,44,31,95,67,21,30.31,30.10,5,2,15,0.00
2013-4-26,73,57,37,53,42,35,93,62,37,30.40,30.28,12,3,26,0.00
2013-4-27,64,58,54,57,54,48,94,85,60,30.36,30.18,11,6,22,0.68
2013-4-28,58,57,54,56,55,52,96,95,92,30.23,30.01,14,3,24,2.18
2013-4-29,76,62,54,60,56,52,99,85,50,30.06,29.92,12,2,12,0.00
2013-4-30,77,61,51,64,56,50,96,86,51,30.10,29.96,12,2,13,0.01
2013-5-1,70,64,61,62,58,56,92,80,66,30.20,30.09,27,8,27,0.00
2013-5-2,65,62,60,60,58,56,92,88,81,30.21,30.13,29,9,29,0.00
2013-5-3,62,60,58,58,57,54,94,90,77,30.15,29.98,23,10,29,0.08
2013-5-4,59,55,50,56,53,48,95,92,77,29.99,29.83,27,10,33,1.98
2013-5-5,62,56,51,58,54,49,96,92,82,29.86,29.75,30,5,30,1.70
2013-5-6,55,51,46,52,48,44,95,92,81,29.91,29.80,14,1,14,0.08
2013-5-7,71,59,51,57,53,50,95,81,55,29.98,29.87,17,2,17,0.03
2013-5-8,78,62,50,61,56,48,96,80,54,30.06,29.95,19,2,19,0.01
2013-5-9,83,67,53,64,58,52,96,76,43,30.11,30.02,16,1,16,0.00
2013-5-10,79,67,55,66,60,53,96,81,58,30.08,29.94,15,1,15,0.00
2013-5-11,68,63,58,62,60,56,94,89,77,29.98,29.92,2,0,2,0.00
2013-5-12,68,64,46,61,48,38,95,60,37,30.10,29.91,22,5,22,0.01
2013-5-13,69,56,37,45,40,35,93,58,32,30.24,30.10,19,2,19,0.01
2013-5-14,80,60,41,59,48,39,93,69,43,30.27,30.10,18,2,18,0.00
2013-5-15,88,72,54,63,59,52,95,68,40,30.15,30.00,16,2,16,0.00
2013-5-16,84,71,58,66,62,56,95,74,49,30.07,29.96,11,1,11,0.00
2013-5-17,81,69,56,67,61,55,96,79,49,30.09,30.01,12,1,12,0.02
2013-5-18,73,69,65,68,66,62,96,90,78,30.08,30.02,9,1,9,0.30
2013-5-19,70,67,66,68,66,64,96,96,93,30.09,29.98,27,2,27,3.97
2013-5-20,87,74,64,74,68,63,97,84,58,30.10,29.98,10,1,10,0.01
2013-5-21,88,78,66,74,70,65,97,78,56,30.03,29.88,16,1,16,0.00
2013-5-22,85,74,65,73,68,63,96,83,56,29.96,29.83,12,1,16,0.00
2013-5-23,84,75,65,68,64,57,95,72,51,29.95,29.88,19,3,19,0.00
2013-5-24,77,66,57,59,53,45,90,65,37,30.19,29.95,18,2,18,0.00
2013-5-25,80,66,44,53,48,42,93,57,34,30.31,30.19,17,2,17,0.00
2013-5-26,84,69,50,60,53,48,95,61,34,30.27,30.15,13,2,13,0.00
2013-5-27,84,70,57,66,59,53,91,70,48,30.24,30.09,11,2,11,0.00
2013-5-28,83,76,66,68,64,60,85,67,52,30.18,30.09,15,2,15,0.00
2013-5-29,81,68,61,67,63,59,94,83,62,30.21,30.11,12,2,12,0.00
2013-5-30,81,75,65,69,67,63,93,77,63,30.24,30.11,14,3,14,0.00
2013-5-31,84,75,70,70,68,66,88,78,59,30.19,30.06,15,3,15,0.00
2013-6-1,83,77,70,72,69,66,93,77,65,30.08,29.96,15,2,15,0.02
2013-6-2,85,73,69,74,70,66,96,89,67,29.98,29.84,11,2,11,0.99
2013-6-3,86,77,66,73,69,65,97,77,52,29.93,29.85,15,2,15,0.03
2013-6-4,89,77,62,72,67,60,96,74,51,30.00,29.87,11,1,11,0.00
2013-6-5,83,74,68,74,70,67,96,87,68,30.02,29.88,17,4,17,1.54
2013-6-6,78,72,67,72,69,66,96,90,81,29.93,29.75,11,3,11,0.00
2013-6-7,83,72,70,71,69,69,94,92,69,29.75,29.69,12,1,12,0.00
2013-6-8,82,71,65,72,67,64,96,86,69,30.00,29.73,10,2,12,0.01
2013-6-9,83,74,69,73,70,67,96,88,67,30.08,29.98,14,2,14,0.60
2013-6-10,81,74,68,72,70,67,96,89,71,30.01,29.92,12,4,12,0.54
2013-6-11,90,80,73,76,74,71,95,81,62,30.02,29.93,15,2,18,0.03
2013-6-12,94,83,70,80,75,68,97,78,56,30.02,29.93,15,1,15,0.00
2013-6-13,90,80,72,77,74,71,96,82,62,29.92,29.70,8,4,22,0.37
2013-6-14,87,78,64,71,65,61,97,67,48,29.99,29.80,13,2,13,0.00
2013-6-15,84,74,63,68,64,61,93,73,50,30.11,29.98,11,2,11,0.00
2013-6-16,86,75,63,74,68,62,96,80,58,30.14,29.99,15,1,15,0.46
2013-6-17,82,72,68,75,69,66,96,92,77,30.07,29.97,9,1,15,0.35
2013-6-18,83,75,70,75,72,68,96,89,77,29.94,29.81,27,2,27,0.73
2013-6-19,82,74,68,72,69,67,97,87,70,30.07,29.88,10,2,13,0.01
2013-6-20,82,76,67,71,69,65,97,80,62,30.18,30.06,18,3,18,0.00
2013-6-21,84,76,67,70,67,65,95,75,57,30.23,30.13,13,2,13,0.00
2013-6-22,85,74,65,70,66,63,95,77,54,30.21,30.08,15,2,15,0.00
2013-6-23,86,78,68,73,71,66,95,79,64,30.18,30.08,14,2,14,0.00
2013-6-24,87,77,70,75,72,69,96,86,63,30.20,30.08,12,1,12,0.01
2013-6-25,89,78,68,76,72,66,96,83,60,30.14,30.01,12,2,12,0.00
2013-6-26,89,78,69,78,73,68,97,85,65,30.05,29.91,14,2,14,0.05
2013-6-27,87,81,76,77,74,72,93,82,70,29.96,29.78,18,3,18,0.00
2013-6-28,94,82,72,76,73,71,96,77,51,29.83,29.65,14,2,14,0.00
2013-6-29,89,81,68,74,70,65,96,71,49,29.69,29.63,14,2,14,0.01
2013-6-30,84,77,72,72,69,67,89,78,58,29.78,29.69,11,2,11,0.00
2013-7-1,82,73,68,72,69,66,95,88,69,29.91,29.76,15,1,15,0.41
2013-7-2,82,73,70,72,70,68,95,88,64,30.06,29.90,12,2,12,0.00
2013-7-3,77,72,68,74,69,67,96,92,86,30.15,30.04,14,2,14,1.74
2013-7-4,78,72,68,74,70,67,96,95,89,30.17,30.08,17,4,17,0.69
2013-7-5,82,74,71,76,71,69,95,90,73,30.20,30.11,18,3,18,0.64
2013-7-6,84,75,70,76,72,68,96,90,71,30.16,30.06,14,3,15,0.73
2013-7-7,82,76,72,74,73,70,96,90,76,30.16,30.08,7,1,7,0.07
2013-7-8,90,79,72,76,73,71,96,85,63,30.17,30.07,9,1,20,2.36
2013-7-9,90,75,71,78,73,70,97,93,65,30.14,30.04,6,0,6,0.12
2013-7-10,91,80,73,79,74,72,96,85,62,30.08,29.93,15,1,15,0.03
2013-7-11,83,75,70,76,72,69,96,91,77,29.96,29.85,6,1,6,0.01
2013-7-12,88,76,68,77,72,63,97,88,66,29.94,29.84,40,1,44,0.36
2013-7-13,79,74,69,73,70,67,94,87,78,30.05,29.93,18,5,18,0.03
2013-7-14,80,76,72,76,73,71,94,91,84,30.21,30.04,19,6,19,0.08
2013-7-15,84,77,73,76,73,70,93,87,74,30.28,30.19,24,6,24,0.05
2013-7-16,88,80,72,76,73,70,95,80,59,30.29,30.21,10,2,13,0.00
2013-7-17,93,77,68,78,72,66,96,84,53,30.26,30.11,19,1,19,0.59
2013-7-18,88,77,68,76,72,67,96,85,65,30.22,30.03,11,1,11,0.03
2013-7-19,91,81,72,77,74,70,96,81,61,30.09,29.96,8,1,8,0.00
2013-7-20,88,78,70,78,72,68,96,84,66,30.00,29.92,12,1,12,0.00
2013-7-21,91,79,69,78,72,67,96,81,60,30.00,29.89,13,1,13,0.16
2013-7-22,85,76,71,77,73,70,96,92,76,29.99,29.84,11,1,11,0.52
2013-7-23,83,76,71,75,72,69,95,87,69,29.94,29.82,21,2,21,0.00
2013-7-24,87,79,72,78,74,70,95,85,67,29.86,29.77,13,2,15,0.00
2013-7-25,91,79,67,74,71,66,96,78,54,29.94,29.82,14,1,14,0.00
2013-7-26,86,75,68,76,71,66,95,87,67,30.05,29.94,19,2,19,0.26
2013-7-27,81,76,69,74,71,67,96,87,73,30.00,29.88,9,1,9,0.00
2013-7-28,88,74,67,74,70,66,96,86,61,30.01,29.91,11,1,11,0.00
2013-7-29,87,76,65,70,66,59,96,74,42,30.15,30.00,14,1,14,0.00
2013-7-30,88,76,60,75,67,58,96,76,52,30.20,30.09,10,1,10,0.00
2013-7-31,82,76,72,74,72,70,94,89,76,30.12,29.94,9,1,10,0.10
2013-8-1,74,72,70,73,70,68,96,95,94,29.99,29.92,6,0,7,0.32
2013-8-2,90,77,65,74,70,64,96,81,55,30.01,29.91,3,1,11,0.01
2013-8-3,86,77,65,75,70,63,96,82,64,30.04,29.98,4,1,13,0.00
2013-8-4,92,80,70,75,72,67,95,78,54,30.00,29.92,3,1,14,0.00
2013-8-5,88,78,65,75,71,63,95,79,62,30.04,29.95,14,2,14,0.00
2013-8-6,88,78,70,77,72,68,94,81,54,29.99,29.93,10,0,10,0.00
2013-8-7,81,74,70,76,73,69,97,94,83,30.04,29.95,17,1,17,6.28
2013-8-8,83,77,73,78,74,72,96,91,78,30.04,29.99,12,1,12,0.03
2013-8-9,75,74,73,73,72,71,97,96,95,30.04,30.00,4,0,4,0.00
2013-8-11,91,78,70,80,74,68,97,86,64,30.14,30.03,4,1,18,0.27
2013-8-12,91,77,70,79,73,69,97,89,64,30.10,29.97,4,1,17,0.09
2013-8-13,86,77,71,77,73,70,96,88,72,29.99,29.85,5,2,13,0.03
2013-8-14,80,75,70,74,71,67,96,88,76,30.01,29.87,4,1,12,0.00
2013-8-15,73,70,68,68,64,61,90,80,69,30.08,29.99,13,7,27,0.00
2013-8-16,70,67,64,65,62,60,92,84,79,30.12,30.04,12,7,25,0.02
2013-8-17,67,66,64,65,63,61,95,92,82,30.15,30.08,14,6,26,0.12
2013-8-18,74,70,66,71,68,65,96,94,89,30.20,30.10,11,3,13,0.25
2013-8-19,77,72,68,74,70,67,96,93,85,30.14,30.05,15,3,15,2.17
2013-8-20,79,74,69,74,72,68,96,91,83,30.17,30.08,13,3,13,0.00
2013-8-21,74,73,73,72,72,71,95,95,94,30.17,30.13,9,2,9,0.00
2013-8-22,88,73,69,77,71,68,97,92,65,30.15,30.03,18,1,19,1.76
2013-8-23,93,78,66,77,71,65,97,83,53,30.08,29.96,21,1,21,0.01
2013-8-24,81,74,68,72,69,66,96,85,70,30.25,30.02,21,4,21,0.00
2013-8-25,81,73,62,69,64,60,93,76,57,30.36,30.24,18,3,18,0.00
2013-8-26,85,71,61,69,64,60,96,81,54,30.31,30.14,13,1,13,0.00
2013-8-27,88,76,61,74,68,59,96,78,55,30.16,30.02,8,0,8,0.00
2013-8-28,90,73,65,76,69,64,96,87,60,30.05,29.99,10,0,10,0.01
2013-8-29,96,81,68,79,74,67,96,82,57,29.98,29.89,3,1,10,0.01
2013-8-30,86,80,72,78,75,71,96,87,73,30.01,29.90,13,2,13,0.00
2013-8-31,91,79,72,78,74,68,96,85,60,29.95,29.85,19,1,19,0.31
2013-9-1,84,75,70,78,72,69,96,92,77,29.91,29.83,11,0,11,0.00
2013-9-2,79,72,70,74,71,69,96,95,84,29.95,29.85,12,1,12,0.01
2013-9-3,91,78,70,76,72,69,96,83,55,29.96,29.85,5,1,15,0.00
2013-9-4,89,78,64,75,70,63,96,78,52,30.07,29.95,7,0,13,0.01
2013-9-5,89,76,65,74,70,64,96,82,56,30.12,30.04,7,0,7,0.01
2013-9-6,83,75,65,71,68,64,96,81,62,30.15,30.05,18,3,18,0.01
2013-9-7,88,72,64,72,67,63,96,87,55,30.12,29.99,6,0,9,0.01
2013-9-8,92,79,63,75,70,62,96,76,50,30.02,29.91,9,1,9,0.00
2013-9-9,87,76,67,74,70,66,96,83,59,30.10,29.98,13,1,13,0.01
2013-9-10,86,77,69,75,71,67,96,84,62,30.21,30.10,12,1,12,0.01
2013-9-11,89,76,66,74,69,64,96,81,51,30.21,30.08,7,1,7,0.00
2013-9-12,89,75,66,77,70,65,96,87,62,30.10,29.89,32,1,32,0.71
2013-9-13,88,75,59,71,66,56,96,78,46,29.91,29.80,18,1,18,0.01
2013-9-14,79,66,52,65,59,51,96,79,56,30.08,29.88,18,2,18,0.01
2013-9-15,82,71,63,72,66,60,95,84,61,30.17,30.08,16,3,16,0.00
2013-9-16,89,75,65,73,67,63,96,80,44,30.13,30.04,10,0,10,0.01
2013-9-17,74,70,65,66,63,61,94,78,67,30.23,30.09,23,6,23,0.00
2013-9-18,75,68,63,65,62,58,94,80,69,30.25,30.13,17,4,17,0.00
2013-9-19,86,70,59,70,64,58,96,83,54,30.19,30.07,6,1,9,0.00
2013-9-20,66,64,62,65,62,60,95,95,94,30.08,30.06,1,0,1,0.00
2013-9-28,73,64,54,61,58,53,95,81,63,30.23,30.12,9,3,19,0.00
2013-9-29,71,63,54,60,57,52,95,81,64,30.16,30.04,9,2,18,0.00
2013-9-30,75,64,55,62,58,54,96,82,55,30.10,30.01,3,1,12,0.01
2013-10-1,82,66,54,66,60,53,96,84,55,30.17,30.06,3,0,9,0.01
2013-10-2,82,68,56,69,62,54,96,83,57,30.17,30.06,3,0,10,0.00
2013-10-3,82,71,61,68,64,60,96,81,57,30.14,30.06,3,0,11,0.01
2013-10-4,84,69,59,70,64,58,96,85,58,30.16,30.08,2,0,16,0.01
2013-10-5,82,70,60,71,65,58,96,84,60,30.13,30.04,6,1,6,0.00
2013-10-6,82,74,62,70,67,61,96,79,60,30.05,29.85,13,2,13,0.89
2013-10-7,68,66,62,67,65,61,96,96,94,29.88,29.80,15,1,15,0.19
2013-10-12,82,72,60,64,61,58,95,72,51,30.09,29.84,14,1,15,0.01
2013-10-13,82,68,54,67,62,53,96,81,54,30.18,30.09,9,1,9,0.00
2013-10-14,73,66,59,65,62,58,96,88,74,30.20,30.12,17,3,17,0.00
2013-10-15,68,64,62,63,60,59,92,85,78,30.15,30.05,15,3,15,0.00
2013-10-16,72,64,58,64,60,56,95,88,71,30.07,29.97,7,0,7,0.01
2013-10-17,69,66,64,68,64,63,96,95,90,29.99,29.88,6,1,6,0.51
2013-10-18,72,60,53,64,55,52,96,86,55,30.02,29.92,9,1,9,0.00
2013-10-19,56,56,56,54,54,54,95,95,95,29.93,29.93,0,0,1,0.00
2013-10-21,68,55,44,59,51,42,95,88,68,30.16,30.03,4,1,12,0.01
2013-10-22,73,61,52,60,55,50,96,83,50,30.06,29.85,4,1,11,0.02
2013-10-23,60,52,39,49,44,36,95,77,47,30.09,29.83,8,3,28,0.01
2013-10-24,64,47,34,45,39,33,94,77,46,30.22,30.09,6,1,14,0.00
2013-10-25,60,45,32,41,32,27,94,66,30,30.39,30.23,4,1,15,0.00
2013-10-26,59,44,31,43,36,30,94,77,46,30.37,30.19,4,1,12,0.00
2013-10-27,67,54,39,55,47,38,94,81,60,30.19,30.12,4,1,14,0.00
2013-10-28,67,59,52,58,55,50,96,90,71,30.29,30.15,8,1,12,0.14
2013-10-29,71,60,50,61,56,48,96,86,67,30.35,30.25,9,1,9,0.00
2013-10-30,79,64,54,63,58,52,96,83,54,30.31,30.16,14,1,14,0.00
2013-10-31,73,68,63,65,60,54,84,77,70,30.18,29.86,15,2,15,0.00
2013-11-1,76,66,50,66,58,48,95,76,41,29.86,29.69,17,3,19,0.50
2013-11-2,68,54,42,51,45,40,96,76,44,30.08,29.81,19,2,19,0.00
2013-11-3,67,49,36,46,40,34,95,74,37,30.34,30.07,11,1,11,0.00
2013-11-4,60,51,42,44,40,38,93,68,47,30.47,30.34,25,6,25,0.01
2013-11-5,62,51,44,41,37,35,77,60,42,30.50,30.40,25,7,25,0.00
2013-11-7,66,57,39,62,50,36,98,79,44,30.21,30.03,6,1,17,0.12
2013-11-8,64,45,31,38,32,29,94,67,27,30.36,30.21,3,1,12,0.01
2013-11-9,57,47,36,43,37,32,91,70,46,30.38,30.26,4,1,11,0.00
2013-11-10,76,54,40,48,41,36,93,66,28,30.30,30.19,3,1,12,0.00
2013-11-11,64,48,34,40,36,32,94,69,37,30.34,30.21,9,1,19,0.00
2013-11-12,66,44,30,46,34,20,94,70,42,30.47,30.16,5,1,19,0.00
2013-11-13,52,32,20,25,22,15,91,69,27,30.61,30.48,3,0,13,0.00
2013-11-14,58,38,23,32,25,20,91,64,26,30.54,30.36,9,0,9,0.00
2013-11-15,51,46,32,50,39,27,95,80,56,30.37,30.20,11,2,12,0.20
2013-11-16,59,56,51,57,54,49,95,93,89,30.26,30.16,13,3,13,0.00
2013-11-17,63,60,59,62,59,56,96,94,89,30.19,29.93,15,3,15,0.31
2013-11-18,73,61,49,67,50,36,97,70,30,30.04,29.88,17,1,17,0.24
2013-11-19,60,49,33,40,35,30,92,60,43,30.21,30.02,15,2,15,0.00
2013-11-20,53,48,42,36,33,30,67,57,49,30.38,30.21,27,8,27,0.00
2013-11-21,52,50,47,50,44,36,95,82,58,30.44,30.35,27,6,27,0.02
2013-11-22,52,51,51,51,50,50,96,95,95,30.39,30.34,10,2,11,0.00
2013-11-26,50,42,34,49,41,32,96,94,91,30.28,29.67,11,5,24,2.20
2013-11-27,45,36,26,44,29,19,96,77,58,30.28,29.65,7,3,26,0.11
2013-11-28,51,33,20,29,23,17,91,71,37,30.53,30.28,3,1,9,0.00
2013-11-29,62,40,24,35,28,22,93,67,26,30.56,30.47,4,1,10,0.00
2013-11-30,50,42,36,32,29,27,81,62,43,30.59,30.39,11,4,22,0.00
2013-12-1,57,46,38,42,36,31,90,70,56,30.39,30.06,4,1,13,0.00
2013-12-2,51,48,41,50,46,39,96,93,90,30.06,29.85,1,0,5,0.20
2013-12-3,54,53,50,53,52,49,96,96,95,29.94,29.86,11,2,11,0.41
2013-12-4,62,58,54,61,57,53,97,97,96,30.05,29.93,9,1,10,0.08
2013-12-5,71,66,61,69,65,60,97,96,92,30.08,29.97,17,2,17,0.51
2013-12-6,76,70,60,69,67,58,96,90,78,30.03,29.93,24,5,24,0.38
2013-12-7,60,49,43,58,46,41,96,90,77,30.31,30.01,23,4,23,0.03
2013-12-8,51,44,40,48,43,39,95,94,87,30.34,30.22,26,8,26,0.33
2013-12-9,50,45,40,49,44,38,100,96,94,30.26,30.04,15,2,15,1.39
2013-12-10,52,44,28,50,40,26,97,85,50,30.36,29.96,27,2,27,0.22
2013-12-11,56,37,24,37,29,23,94,75,36,30.49,30.35,9,1,9,0.00
2013-12-12,53,34,26,29,25,13,92,73,22,30.48,30.38,13,2,13,0.00
2013-12-13,53,39,23,33,25,20,89,61,32,30.43,30.24,5,1,11,0.00
2013-12-14,48,47,44,47,42,30,96,84,54,30.23,29.86,11,4,23,0.89
2013-12-15,49,41,32,48,36,28,96,84,70,30.21,29.84,8,4,19,0.02
2013-12-16,54,41,30,35,32,27,91,72,43,30.28,30.20,17,2,18,0.00
2013-12-17,35,32,31,32,30,28,92,90,86,30.26,30.24,2,0,2,0.00
2013-12-18,55,43,31,31,26,20,83,54,30,30.34,30.18,13,2,17,0.00
2013-12-19,61,37,27,34,27,23,90,71,28,30.38,30.28,9,0,9,0.00
2013-12-20,60,48,35,51,41,31,87,77,61,30.27,30.16,4,1,9,0.00
2013-12-21,69,60,54,66,58,49,95,91,84,30.16,29.95,7,3,18,0.03
2013-12-22,70,62,58,66,60,56,96,94,89,30.06,29.90,6,2,17,3.31
2013-12-23,58,49,37,57,46,34,97,90,81,30.24,30.03,19,4,19,0.00
2013-12-24,44,34,25,32,26,20,90,74,46,30.43,30.23,6,2,17,0.00
2013-12-25,42,34,25,27,24,18,87,66,46,30.54,30.40,10,2,26,0.00
2013-12-26,59,39,28,34,29,24,90,68,33,30.42,30.29,11,1,11,0.00
2013-12-27,55,37,26,34,28,24,92,73,37,30.51,30.36,17,1,17,0.00
2013-12-28,46,34,29,39,29,26,93,85,57,30.46,30.06,15,1,28,0.59
2013-12-29,52,46,41,47,43,39,95,89,81,30.06,29.89,20,5,27,0.22
2013-12-30,48,43,38,44,40,37,95,88,79,30.23,30.05,18,3,18,0.00
2013-12-31,51,40,31,37,31,24,96,73,35,30.40,30.21,15,2,15,0.00
2014-1-1,49,41,31,39,33,28,90,73,55,30.40,30.17,10,1,10,0.00
2014-1-2,48,40,24,47,36,16,95,86,70,30.17,29.78,28,3,28,0.32